Time,TemperatureF,DewpointF,PressureIn,WindDirection,WindDirectionDegrees,WindSpeedMPH,WindSpeedGustMPH,Humidity,HourlyPrecipIn,Conditions,Clouds,dailyrainin,SoftwareType,DateUTC
2013-02-17 00:00:00,31.7,19.8,29.69,WSW,248,1.1,8.5,61,0.00,,,0.00,WUHU216HW,2013-02-17 05:00:00,
2013-02-17 00:05:00,31.5,20.0,29.69,North,0,2.7,7.2,62,0.00,,,0.00,WUHU216HW,2013-02-17 05:05:00,
2013-02-17 00:10:00,31.3,19.8,29.69,NW,315,0.7,8.3,62,0.00,,,0.00,WUHU216HW,2013-02-17 05:10:00,
2013-02-17 00:15:00,31.3,19.8,29.69,NNE,23,1.8,8.3,62,0.00,,,0.00,WUHU216HW,2013-02-17 05:15:00,
2013-02-17 00:20:00,31.3,19.8,29.69,NW,315,3.8,4.7,62,0.00,,,0.00,WUHU216HW,2013-02-17 05:20:00,
2013-02-17 00:25:00,31.3,19.8,29.69,North,0,2.7,4.7,62,0.00,,,0.00,WUHU216HW,2013-02-17 05:25:00,
2013-02-17 00:30:00,31.3,19.4,29.68,ENE,68,1.1,7.6,61,0.00,,,0.00,WUHU216HW,2013-02-17 05:30:00,
2013-02-17 00:35:00,31.3,19.1,29.68,NNE,23,2.2,8.5,60,0.00,,,0.00,WUHU216HW,2013-02-17 05:35:00,
2013-02-17 00:40:00,31.3,18.3,29.69,WNW,293,4.0,8.5,58,0.00,,,0.00,WUHU216HW,2013-02-17 05:40:00,
2013-02-17 00:45:00,31.3,18.3,29.67,NNE,23,1.3,6.3,58,0.00,,,0.00,WUHU216HW,2013-02-17 05:45:00,
2013-02-17 00:50:00,31.3,18.3,29.67,NW,315,4.7,6.7,58,0.00,,,0.00,WUHU216HW,2013-02-17 05:50:00,
2013-02-17 00:55:00,31.3,17.8,29.66,NNE,23,2.9,8.3,57,0.00,,,0.00,WUHU216HW,2013-02-17 05:55:00,
2013-02-17 01:00:00,31.3,17.4,29.66,NNW,338,2.7,8.3,56,0.00,,,0.00,WUHU216HW,2013-02-17 06:00:00,
2013-02-17 01:05:00,31.3,17.4,29.66,North,0,3.8,6.0,56,0.00,,,0.00,WUHU216HW,2013-02-17 06:05:00,
2013-02-17 01:10:00,31.3,17.4,29.66,NW,315,4.5,6.9,56,0.00,,,0.00,WUHU216HW,2013-02-17 06:10:00,
2013-02-17 01:15:00,31.3,17.4,29.65,NNW,338,3.6,7.2,56,0.00,,,0.00,WUHU216HW,2013-02-17 06:15:00,
2013-02-17 01:20:00,31.3,17.4,29.65,North,0,2.7,7.2,56,0.00,,,0.00,WUHU216HW,2013-02-17 06:20:00,
2013-02-17 01:25:00,31.3,16.9,29.67,NW,315,1.8,6.0,55,0.00,,,0.00,WUHU216HW,2013-02-17 06:25:00,
2013-02-17 01:30:00,31.3,17.4,29.66,North,0,1.8,4.7,56,0.00,,,0.00,WUHU216HW,2013-02-17 06:30:00,
2013-02-17 01:35:00,31.3,17.4,29.66,NNW,338,3.1,5.4,56,0.00,,,0.00,WUHU216HW,2013-02-17 06:35:00,
2013-02-17 01:40:00,31.3,16.9,29.67,South,180,2.2,5.8,55,0.00,,,0.00,WUHU216HW,2013-02-17 06:40:00,
2013-02-17 01:45:00,31.3,16.1,29.66,North,0,1.6,6.3,53,0.00,,,0.00,WUHU216HW,2013-02-17 06:45:00,
2013-02-17 01:50:00,31.1,15.5,29.66,NW,315,2.5,7.6,52,0.00,,,0.00,WUHU216HW,2013-02-17 06:50:00,
2013-02-17 01:55:00,31.1,16.4,29.66,NNW,338,4.0,7.6,54,0.00,,,0.00,WUHU216HW,2013-02-17 06:55:00,
2013-02-17 02:00:00,31.1,15.9,29.65,NNE,23,3.6,6.9,53,0.00,,,0.00,WUHU216HW,2013-02-17 07:00:00,
2013-02-17 02:05:00,31.1,15.5,29.65,North,0,5.6,6.9,52,0.00,,,0.00,WUHU216HW,2013-02-17 07:05:00,
2013-02-17 02:10:00,31.0,15.8,29.65,North,0,2.5,6.7,53,0.00,,,0.00,WUHU216HW,2013-02-17 07:10:00,
2013-02-17 02:15:00,31.0,15.8,29.65,East,90,3.6,6.0,53,0.00,,,0.00,WUHU216HW,2013-02-17 07:15:00,
2013-02-17 02:20:00,31.0,15.4,29.65,West,270,1.1,6.0,52,0.00,,,0.00,WUHU216HW,2013-02-17 07:20:00,
2013-02-17 02:25:00,31.0,15.4,29.65,NE,45,2.5,6.0,52,0.00,,,0.00,WUHU216HW,2013-02-17 07:25:00,
2013-02-17 02:30:00,30.8,15.2,29.65,NNW,338,2.5,5.6,52,0.00,,,0.00,WUHU216HW,2013-02-17 07:30:00,
2013-02-17 02:35:00,30.8,15.2,29.65,North,0,1.6,5.8,52,0.00,,,0.00,WUHU216HW,2013-02-17 07:35:00,
2013-02-17 02:40:00,30.6,14.6,29.65,NNE,23,2.5,6.9,51,0.00,,,0.00,WUHU216HW,2013-02-17 07:40:00,
2013-02-17 02:45:00,30.6,14.6,29.64,NW,315,5.6,6.9,51,0.00,,,0.00,WUHU216HW,2013-02-17 07:45:00,
2013-02-17 02:50:00,30.6,15.0,29.64,NNE,23,3.4,6.3,52,0.00,,,0.00,WUHU216HW,2013-02-17 07:50:00,
2013-02-17 02:55:00,30.4,14.4,29.64,NNE,23,4.7,10.5,51,0.00,,,0.00,WUHU216HW,2013-02-17 07:55:00,
2013-02-17 03:00:00,30.2,14.3,29.64,WNW,293,6.5,10.5,51,0.00,,,0.00,WUHU216HW,2013-02-17 08:00:00,
2013-02-17 03:05:00,30.2,13.9,29.63,NNW,338,1.1,7.6,50,0.00,,,0.00,WUHU216HW,2013-02-17 08:05:00,
2013-02-17 03:10:00,30.1,14.1,29.64,ENE,68,4.3,7.6,51,0.00,,,0.00,WUHU216HW,2013-02-17 08:10:00,
2013-02-17 03:15:00,30.1,13.2,29.64,NW,315,2.5,7.6,49,0.00,,,0.00,WUHU216HW,2013-02-17 08:15:00,
2013-02-17 03:20:00,30.1,13.7,29.64,NNW,338,4.0,7.6,50,0.00,,,0.00,WUHU216HW,2013-02-17 08:20:00,
2013-02-17 03:25:00,29.9,13.1,29.63,NNE,23,1.8,7.4,49,0.00,,,0.00,WUHU216HW,2013-02-17 08:25:00,
2013-02-17 03:30:00,29.9,12.5,29.63,North,0,4.5,9.4,48,0.00,,,0.00,WUHU216HW,2013-02-17 08:30:00,
2013-02-17 03:35:00,29.9,13.1,29.63,NNW,338,4.0,9.4,49,0.00,,,0.00,WUHU216HW,2013-02-17 08:35:00,
2013-02-17 03:40:00,29.7,12.9,29.64,NNW,338,2.2,9.2,49,0.00,,,0.00,WUHU216HW,2013-02-17 08:40:00,
2013-02-17 03:45:00,29.7,12.3,29.63,WNW,293,2.5,7.2,48,0.00,,,0.00,WUHU216HW,2013-02-17 08:45:00,
2013-02-17 03:50:00,29.5,11.7,29.63,NW,315,3.8,9.2,47,0.00,,,0.00,WUHU216HW,2013-02-17 08:50:00,
2013-02-17 03:55:00,29.5,12.3,29.63,West,270,3.4,9.2,48,0.00,,,0.00,WUHU216HW,2013-02-17 08:55:00,
2013-02-17 04:00:00,29.5,12.3,29.63,West,270,2.2,6.9,48,0.00,,,0.00,WUHU216HW,2013-02-17 09:00:00,
2013-02-17 04:05:00,29.5,12.3,29.62,West,270,1.8,6.9,48,0.00,,,0.00,WUHU216HW,2013-02-17 09:05:00,
2013-02-17 04:10:00,29.3,11.5,29.63,NNE,23,1.8,6.9,47,0.00,,,0.00,WUHU216HW,2013-02-17 09:10:00,
2013-02-17 04:15:00,29.3,11.1,29.63,North,0,2.0,7.6,46,0.00,,,0.00,WUHU216HW,2013-02-17 09:15:00,
2013-02-17 04:20:00,29.3,11.1,29.63,NNW,338,6.9,7.6,46,0.00,,,0.00,WUHU216HW,2013-02-17 09:20:00,
2013-02-17 04:25:00,29.2,10.4,29.62,North,0,4.0,8.9,45,0.00,,,0.00,WUHU216HW,2013-02-17 09:25:00,
2013-02-17 04:30:00,29.2,9.9,29.62,NNW,338,11.0,11.0,44,0.00,,,0.00,WUHU216HW,2013-02-17 09:30:00,
2013-02-17 04:35:00,29.0,9.7,29.62,NNW,338,6.3,11.0,44,0.00,,,0.00,WUHU216HW,2013-02-17 09:35:00,
2013-02-17 04:40:00,29.0,9.2,29.61,NNE,23,6.5,11.0,43,0.00,,,0.00,WUHU216HW,2013-02-17 09:40:00,
2013-02-17 04:45:00,29.0,9.7,29.61,NNW,338,10.3,10.3,44,0.00,,,0.00,WUHU216HW,2013-02-17 09:45:00,
2013-02-17 04:50:00,28.8,9.5,29.61,NE,45,7.6,10.3,44,0.00,,,0.00,WUHU216HW,2013-02-17 09:50:00,
2013-02-17 04:55:00,28.8,10.1,29.62,NE,45,4.7,10.3,45,0.00,,,0.00,WUHU216HW,2013-02-17 09:55:00,
2013-02-17 05:00:00,28.6,9.9,29.62,NW,315,8.9,8.9,45,0.00,,,0.00,WUHU216HW,2013-02-17 10:00:00,
2013-02-17 05:05:00,28.6,9.9,29.62,North,0,3.1,8.9,45,0.00,,,0.00,WUHU216HW,2013-02-17 10:05:00,
2013-02-17 05:10:00,28.4,10.3,29.62,North,0,5.1,8.9,46,0.00,,,0.00,WUHU216HW,2013-02-17 10:10:00,
2013-02-17 05:15:00,28.4,10.3,29.63,NNW,338,5.4,7.6,46,0.00,,,0.00,WUHU216HW,2013-02-17 10:15:00,
2013-02-17 05:20:00,28.4,10.7,29.63,NW,315,1.8,6.5,47,0.00,,,0.00,WUHU216HW,2013-02-17 10:20:00,
2013-02-17 05:25:00,28.4,10.7,29.62,NNW,338,4.7,8.5,47,0.00,,,0.00,WUHU216HW,2013-02-17 10:25:00,
2013-02-17 05:30:00,28.4,10.7,29.62,North,0,2.9,8.5,47,0.00,,,0.00,WUHU216HW,2013-02-17 10:30:00,
2013-02-17 05:35:00,28.3,11.1,29.62,NNW,338,4.7,7.6,48,0.00,,,0.00,WUHU216HW,2013-02-17 10:35:00,
2013-02-17 05:40:00,28.3,11.1,29.62,North,0,7.6,7.6,48,0.00,,,0.00,WUHU216HW,2013-02-17 10:40:00,
2013-02-17 05:45:00,28.3,11.1,29.62,NW,315,3.4,7.6,48,0.00,,,0.00,WUHU216HW,2013-02-17 10:45:00,
2013-02-17 05:50:00,28.3,11.1,29.62,NNW,338,4.3,9.2,48,0.00,,,0.00,WUHU216HW,2013-02-17 10:50:00,
2013-02-17 05:55:00,28.1,10.9,29.62,NNW,338,3.4,9.2,48,0.00,,,0.00,WUHU216HW,2013-02-17 10:55:00,
2013-02-17 06:00:00,28.3,11.1,29.62,NW,315,2.2,7.8,48,0.00,,,0.00,WUHU216HW,2013-02-17 11:00:00,
2013-02-17 06:05:00,28.1,10.9,29.62,SW,225,1.8,6.3,48,0.00,,,0.00,WUHU216HW,2013-02-17 11:05:00,
2013-02-17 06:10:00,28.1,10.9,29.62,NNE,23,3.4,6.9,48,0.00,,,0.00,WUHU216HW,2013-02-17 11:10:00,
2013-02-17 06:15:00,28.1,10.9,29.62,NW,315,2.5,7.6,48,0.00,,,0.00,WUHU216HW,2013-02-17 11:15:00,
2013-02-17 06:20:00,27.9,11.2,29.62,NNW,338,1.8,7.6,49,0.00,,,0.00,WUHU216HW,2013-02-17 11:20:00,
2013-02-17 06:25:00,28.1,11.3,29.61,NNW,338,1.8,5.8,49,0.00,,,0.00,WUHU216HW,2013-02-17 11:25:00,
2013-02-17 06:30:00,27.9,11.2,29.61,North,0,5.1,9.6,49,0.00,,,0.00,WUHU216HW,2013-02-17 11:30:00,
2013-02-17 06:35:00,27.7,11.5,29.61,NW,315,1.8,9.6,50,0.00,,,0.00,WUHU216HW,2013-02-17 11:35:00,
2013-02-17 06:40:00,27.7,11.5,29.61,West,270,1.8,7.4,50,0.00,,,0.00,WUHU216HW,2013-02-17 11:40:00,
2013-02-17 06:45:00,27.7,11.5,29.61,SSW,203,0.9,6.0,50,0.00,,,0.00,WUHU216HW,2013-02-17 11:45:00,
2013-02-17 06:50:00,27.7,12.0,29.61,SW,225,2.5,6.0,51,0.00,,,0.00,WUHU216HW,2013-02-17 11:50:00,
2013-02-17 06:55:00,27.7,12.0,29.61,NNW,338,1.1,6.3,51,0.00,,,0.00,WUHU216HW,2013-02-17 11:55:00,
2013-02-17 07:00:00,27.7,12.3,29.61,NNE,23,2.5,6.3,52,0.00,,,0.00,WUHU216HW,2013-02-17 12:00:00,
2013-02-17 07:05:00,27.7,12.3,29.62,North,0,1.6,6.0,52,0.00,,,0.00,WUHU216HW,2013-02-17 12:05:00,
2013-02-17 07:10:00,27.7,12.8,29.62,NNE,23,2.0,6.0,53,0.00,,,0.00,WUHU216HW,2013-02-17 12:10:00,
2013-02-17 07:15:00,27.7,12.3,29.62,NW,315,1.3,4.3,52,0.00,,,0.00,WUHU216HW,2013-02-17 12:15:00,
2013-02-17 07:20:00,27.9,12.5,29.62,NW,315,3.8,4.3,52,0.00,,,0.00,WUHU216HW,2013-02-17 12:20:00,
2013-02-17 07:25:00,27.7,11.5,29.62,SSW,203,1.8,8.1,50,0.00,,,0.00,WUHU216HW,2013-02-17 12:25:00,
2013-02-17 07:30:00,27.7,11.5,29.62,WNW,293,1.8,9.2,50,0.00,,,0.00,WUHU216HW,2013-02-17 12:30:00,
2013-02-17 07:35:00,27.9,11.2,29.63,NW,315,4.9,9.2,49,0.00,,,0.00,WUHU216HW,2013-02-17 12:35:00,
2013-02-17 07:40:00,27.9,11.2,29.63,NW,315,2.2,7.6,49,0.00,,,0.00,WUHU216HW,2013-02-17 12:40:00,
2013-02-17 07:45:00,27.9,11.2,29.62,NNW,338,4.0,8.1,49,0.00,,,0.00,WUHU216HW,2013-02-17 12:45:00,
2013-02-17 07:50:00,28.1,11.3,29.63,ENE,68,1.3,8.1,49,0.00,,,0.00,WUHU216HW,2013-02-17 12:50:00,
2013-02-17 07:55:00,28.1,10.9,29.62,NW,315,6.3,7.4,48,0.00,,,0.00,WUHU216HW,2013-02-17 12:55:00,
2013-02-17 08:00:00,28.1,10.9,29.63,NNW,338,5.6,8.5,48,0.00,,,0.00,WUHU216HW,2013-02-17 13:00:00,
2013-02-17 08:05:00,28.1,10.9,29.62,NE,45,1.3,8.5,48,0.00,,,0.00,WUHU216HW,2013-02-17 13:05:00,
2013-02-17 08:10:00,28.3,11.1,29.62,NNW,338,3.6,8.1,48,0.00,,,0.00,WUHU216HW,2013-02-17 13:10:00,
2013-02-17 08:15:00,28.4,11.3,29.62,WSW,248,3.8,7.6,48,0.00,,,0.00,WUHU216HW,2013-02-17 13:15:00,
2013-02-17 08:20:00,28.4,11.3,29.62,NW,315,2.2,5.1,48,0.00,,,0.00,WUHU216HW,2013-02-17 13:20:00,
2013-02-17 08:25:00,28.4,10.7,29.62,West,270,4.7,7.4,47,0.00,,,0.00,WUHU216HW,2013-02-17 13:25:00,
2013-02-17 08:30:00,28.6,11.4,29.62,NNW,338,3.4,7.4,48,0.00,,,0.00,WUHU216HW,2013-02-17 13:30:00,
2013-02-17 08:35:00,28.6,10.4,29.62,NW,315,5.6,6.5,46,0.00,,,0.00,WUHU216HW,2013-02-17 13:35:00,
2013-02-17 08:40:00,28.8,10.5,29.61,West,270,1.6,6.5,46,0.00,,,0.00,WUHU216HW,2013-02-17 13:40:00,
2013-02-17 08:45:00,28.8,10.1,29.61,North,0,4.0,5.6,45,0.00,,,0.00,WUHU216HW,2013-02-17 13:45:00,
2013-02-17 08:50:00,29.0,9.7,29.61,WNW,293,4.7,5.4,44,0.00,,,0.00,WUHU216HW,2013-02-17 13:50:00,
2013-02-17 08:55:00,29.2,10.9,29.61,WNW,293,2.5,5.4,46,0.00,,,0.00,WUHU216HW,2013-02-17 13:55:00,
2013-02-17 09:00:00,29.2,9.4,29.61,NNW,338,1.8,5.6,43,0.00,,,0.00,WUHU216HW,2013-02-17 14:00:00,
2013-02-17 09:05:00,29.2,9.4,29.61,West,270,2.0,7.8,43,0.00,,,0.00,WUHU216HW,2013-02-17 14:05:00,
2013-02-17 09:10:00,29.3,9.6,29.61,North,0,3.1,7.8,43,0.00,,,0.00,WUHU216HW,2013-02-17 14:10:00,
2013-02-17 09:15:00,29.3,9.0,29.61,WNW,293,3.6,7.4,42,0.00,,,0.00,WUHU216HW,2013-02-17 14:15:00,
2013-02-17 09:20:00,29.5,9.7,29.61,SSE,158,3.4,8.5,43,0.00,,,0.00,WUHU216HW,2013-02-17 14:20:00,
2013-02-17 09:25:00,29.5,8.6,29.61,WSW,248,4.5,8.5,41,0.00,,,0.00,WUHU216HW,2013-02-17 14:25:00,
2013-02-17 09:30:00,29.7,8.8,29.61,WSW,248,2.9,6.5,41,0.00,,,0.00,WUHU216HW,2013-02-17 14:30:00,
2013-02-17 09:35:00,29.7,8.4,29.61,NNW,338,3.1,10.7,40,0.00,,,0.00,WUHU216HW,2013-02-17 14:35:00,
2013-02-17 09:40:00,29.7,8.4,29.61,NW,315,5.8,10.7,40,0.00,,,0.00,WUHU216HW,2013-02-17 14:40:00,
2013-02-17 09:45:00,29.9,8.5,29.61,NW,315,1.8,8.5,40,0.00,,,0.00,WUHU216HW,2013-02-17 14:45:00,
2013-02-17 09:50:00,29.9,7.8,29.61,NW,315,7.4,8.5,39,0.00,,,0.00,WUHU216HW,2013-02-17 14:50:00,
2013-02-17 09:55:00,30.2,6.9,29.61,North,0,4.3,8.3,37,0.00,,,0.00,WUHU216HW,2013-02-17 14:55:00,
2013-02-17 10:00:00,30.2,6.9,29.61,NW,315,6.9,8.1,37,0.00,,,0.00,WUHU216HW,2013-02-17 15:00:00,
2013-02-17 10:05:00,30.4,7.1,29.61,WNW,293,2.0,8.3,37,0.00,,,0.00,WUHU216HW,2013-02-17 15:05:00,
2013-02-17 10:10:00,30.6,7.9,29.61,NW,315,1.3,8.7,38,0.00,,,0.00,WUHU216HW,2013-02-17 15:10:00,
2013-02-17 10:15:00,31.0,7.6,29.61,NNW,338,1.1,10.3,37,0.00,,,0.00,WUHU216HW,2013-02-17 15:15:00,
2013-02-17 10:20:00,31.5,8.1,29.61,North,0,2.7,10.3,37,0.00,,,0.00,WUHU216HW,2013-02-17 15:20:00,
2013-02-17 10:25:00,31.9,7.7,29.62,North,0,7.8,11.0,36,0.00,,,0.00,WUHU216HW,2013-02-17 15:25:00,
2013-02-17 10:30:00,31.9,7.7,29.62,NE,45,8.3,11.0,36,0.00,,,0.00,WUHU216HW,2013-02-17 15:30:00,
2013-02-17 10:35:00,32.4,8.9,29.62,West,270,1.6,9.4,37,0.00,,,0.00,WUHU216HW,2013-02-17 15:35:00,
2013-02-17 10:40:00,32.9,7.5,29.62,NNW,338,9.6,9.6,34,0.00,,,0.00,WUHU216HW,2013-02-17 15:40:00,
2013-02-17 10:45:00,32.9,8.7,29.62,North,0,6.9,9.8,36,0.00,,,0.00,WUHU216HW,2013-02-17 15:45:00,
2013-02-17 10:50:00,33.5,9.2,29.63,West,270,3.6,9.8,36,0.00,,,0.00,WUHU216HW,2013-02-17 15:50:00,
2013-02-17 10:55:00,34.0,9.1,29.63,NNW,338,5.6,9.2,35,0.00,,,0.00,WUHU216HW,2013-02-17 15:55:00,
2013-02-17 11:00:00,34.2,9.2,29.63,WNW,293,5.4,11.6,35,0.00,,,0.00,WUHU216HW,2013-02-17 16:00:00,
2013-02-17 11:05:00,34.2,7.3,29.63,NE,45,6.0,11.6,32,0.00,,,0.00,WUHU216HW,2013-02-17 16:05:00,
2013-02-17 11:10:00,34.2,7.9,29.63,SW,225,3.4,10.3,33,0.00,,,0.00,WUHU216HW,2013-02-17 16:10:00,
2013-02-17 11:15:00,34.9,10.4,29.63,SW,225,2.5,8.9,36,0.00,,,0.00,WUHU216HW,2013-02-17 16:15:00,
2013-02-17 11:20:00,35.5,8.4,29.63,NNE,23,4.9,8.9,32,0.00,,,0.00,WUHU216HW,2013-02-17 16:20:00,
2013-02-17 11:25:00,35.1,8.0,29.64,West,270,6.3,8.9,32,0.00,,,0.00,WUHU216HW,2013-02-17 16:25:00,
2013-02-17 11:30:00,34.7,7.7,29.64,NW,315,9.6,9.6,32,0.00,,,0.00,WUHU216HW,2013-02-17 16:30:00,
2013-02-17 11:35:00,34.4,7.5,29.64,West,270,4.7,9.6,32,0.00,,,0.00,WUHU216HW,2013-02-17 16:35:00,
2013-02-17 11:40:00,34.2,6.7,29.64,North,0,5.4,11.4,31,0.00,,,0.00,WUHU216HW,2013-02-17 16:40:00,
2013-02-17 11:45:00,34.2,7.3,29.64,WNW,293,3.6,11.4,32,0.00,,,0.00,WUHU216HW,2013-02-17 16:45:00,
2013-02-17 11:50:00,34.2,6.0,29.64,North,0,7.6,10.5,30,0.00,,,0.00,WUHU216HW,2013-02-17 16:50:00,
2013-02-17 11:55:00,33.8,5.8,29.64,North,0,8.5,10.5,30,0.00,,,0.00,WUHU216HW,2013-02-17 16:55:00,
2013-02-17 12:00:00,33.7,6.2,29.64,NW,315,5.4,9.6,31,0.00,,,0.00,WUHU216HW,2013-02-17 17:00:00,
2013-02-17 12:05:00,34.0,7.8,29.64,West,270,8.5,8.5,33,0.00,,,0.00,WUHU216HW,2013-02-17 17:05:00,
2013-02-17 12:10:00,34.6,8.3,29.64,NNW,338,5.6,9.8,33,0.00,,,0.00,WUHU216HW,2013-02-17 17:10:00,
2013-02-17 12:15:00,35.1,8.0,29.64,West,270,4.9,9.8,32,0.00,,,0.00,WUHU216HW,2013-02-17 17:15:00,
2013-02-17 12:20:00,35.3,8.2,29.64,NW,315,2.2,9.2,32,0.00,,,0.00,WUHU216HW,2013-02-17 17:20:00,
2013-02-17 12:25:00,35.6,7.2,29.64,West,270,8.3,11.2,30,0.00,,,0.00,WUHU216HW,2013-02-17 17:25:00,
2013-02-17 12:30:00,35.6,7.8,29.64,West,270,5.4,11.2,31,0.00,,,0.00,WUHU216HW,2013-02-17 17:30:00,
2013-02-17 12:35:00,35.6,7.2,29.64,North,0,5.8,9.6,30,0.00,,,0.00,WUHU216HW,2013-02-17 17:35:00,
2013-02-17 12:40:00,35.8,7.4,29.64,North,0,5.4,10.5,30,0.00,,,0.00,WUHU216HW,2013-02-17 17:40:00,
2013-02-17 12:45:00,36.0,8.2,29.65,West,270,5.1,10.5,31,0.00,,,0.00,WUHU216HW,2013-02-17 17:45:00,
2013-02-17 12:50:00,36.0,8.2,29.65,North,0,3.4,8.5,31,0.00,,,0.00,WUHU216HW,2013-02-17 17:50:00,
2013-02-17 12:55:00,35.8,8.0,29.65,West,270,8.9,11.0,31,0.00,,,0.00,WUHU216HW,2013-02-17 17:55:00,
2013-02-17 13:00:00,35.6,7.8,29.65,WNW,293,6.9,11.0,31,0.00,,,0.00,WUHU216HW,2013-02-17 18:00:00,
2013-02-17 13:05:00,35.6,7.2,29.65,NW,315,3.1,11.2,30,0.00,,,0.00,WUHU216HW,2013-02-17 18:05:00,
2013-02-17 13:10:00,35.3,7.6,29.66,North,0,3.6,11.2,31,0.00,,,0.00,WUHU216HW,2013-02-17 18:10:00,
2013-02-17 13:15:00,35.3,7.6,29.66,NW,315,7.2,10.7,31,0.00,,,0.00,WUHU216HW,2013-02-17 18:15:00,
2013-02-17 13:20:00,34.9,7.3,29.65,North,0,3.4,11.4,31,0.00,,,0.00,WUHU216HW,2013-02-17 18:20:00,
2013-02-17 13:25:00,34.9,7.9,29.65,NW,315,7.6,11.4,32,0.00,,,0.00,WUHU216HW,2013-02-17 18:25:00,
2013-02-17 13:30:00,34.9,7.3,29.66,SSW,203,4.5,9.8,31,0.00,,,0.00,WUHU216HW,2013-02-17 18:30:00,
2013-02-17 13:35:00,34.7,7.1,29.66,North,0,10.7,10.7,31,0.00,,,0.00,WUHU216HW,2013-02-17 18:35:00,
2013-02-17 13:40:00,34.2,6.7,29.66,NW,315,4.0,11.2,31,0.00,,,0.00,WUHU216HW,2013-02-17 18:40:00,
2013-02-17 13:45:00,34.0,7.2,29.66,NNE,23,6.0,11.2,32,0.00,,,0.00,WUHU216HW,2013-02-17 18:45:00,
2013-02-17 13:50:00,33.8,7.0,29.67,SE,135,1.3,10.1,32,0.00,,,0.00,WUHU216HW,2013-02-17 18:50:00,
2013-02-17 13:55:00,34.0,7.8,29.67,WNW,293,3.4,10.1,33,0.00,,,0.00,WUHU216HW,2013-02-17 18:55:00,
2013-02-17 14:00:00,33.8,7.7,29.67,WSW,248,3.4,10.7,33,0.00,,,0.00,WUHU216HW,2013-02-17 19:00:00,
2013-02-17 14:05:00,33.8,7.7,29.66,WSW,248,7.8,10.7,33,0.00,,,0.00,WUHU216HW,2013-02-17 19:05:00,
2013-02-17 14:10:00,33.5,7.3,29.66,WNW,293,4.9,10.5,33,0.00,,,0.00,WUHU216HW,2013-02-17 19:10:00,
2013-02-17 14:15:00,33.7,7.5,29.66,West,270,3.1,10.5,33,0.00,,,0.00,WUHU216HW,2013-02-17 19:15:00,
2013-02-17 14:20:00,33.8,7.7,29.66,WSW,248,5.8,8.7,33,0.00,,,0.00,WUHU216HW,2013-02-17 19:20:00,
2013-02-17 14:25:00,33.8,7.7,29.66,NW,315,7.4,8.5,33,0.00,,,0.00,WUHU216HW,2013-02-17 19:25:00,
2013-02-17 14:30:00,33.7,7.5,29.66,NW,315,8.3,10.3,33,0.00,,,0.00,WUHU216HW,2013-02-17 19:30:00,
2013-02-17 14:35:00,33.7,7.5,29.67,WNW,293,3.4,10.3,33,0.00,,,0.00,WUHU216HW,2013-02-17 19:35:00,
2013-02-17 14:40:00,33.5,7.3,29.67,NNW,338,3.8,8.3,33,0.00,,,0.00,WUHU216HW,2013-02-17 19:40:00,
2013-02-17 14:45:00,33.3,7.2,29.67,SSW,203,7.4,10.3,33,0.00,,,0.00,WUHU216HW,2013-02-17 19:45:00,
2013-02-17 14:50:00,33.1,7.0,29.67,West,270,2.5,10.3,33,0.00,,,0.00,WUHU216HW,2013-02-17 19:50:00,
2013-02-17 14:55:00,33.1,7.0,29.67,NW,315,6.3,9.4,33,0.00,,,0.00,WUHU216HW,2013-02-17 19:55:00,
2013-02-17 15:00:00,33.1,7.0,29.67,North,0,9.2,13.2,33,0.00,,,0.00,WUHU216HW,2013-02-17 20:00:00,
2013-02-17 15:05:00,32.8,6.0,29.67,ESE,113,10.7,13.2,32,0.00,,,0.00,WUHU216HW,2013-02-17 20:05:00,
2013-02-17 15:10:00,32.2,5.6,29.68,NNW,338,4.5,11.6,32,0.00,,,0.00,WUHU216HW,2013-02-17 20:10:00,
2013-02-17 15:15:00,32.2,5.6,29.68,NNW,338,5.4,11.6,32,0.00,,,0.00,WUHU216HW,2013-02-17 20:15:00,
2013-02-17 15:20:00,32.0,5.4,29.69,NNE,23,7.6,9.4,32,0.00,,,0.00,WUHU216HW,2013-02-17 20:20:00,
2013-02-17 15:25:00,32.0,4.8,29.69,ESE,113,7.8,10.1,31,0.00,,,0.00,WUHU216HW,2013-02-17 20:25:00,
2013-02-17 15:30:00,31.7,5.0,29.69,NW,315,5.1,10.1,32,0.00,,,0.00,WUHU216HW,2013-02-17 20:30:00,
2013-02-17 15:35:00,31.5,5.0,29.69,NW,315,6.9,10.1,32,0.00,,,0.00,WUHU216HW,2013-02-17 20:35:00,
2013-02-17 15:40:00,31.3,4.8,29.69,North,0,7.4,11.0,32,0.00,,,0.00,WUHU216HW,2013-02-17 20:40:00,
2013-02-17 15:45:00,31.3,5.4,29.69,NNE,23,8.5,11.0,33,0.00,,,0.00,WUHU216HW,2013-02-17 20:45:00,
2013-02-17 15:50:00,31.3,5.4,29.70,NW,315,5.4,9.4,33,0.00,,,0.00,WUHU216HW,2013-02-17 20:50:00,
2013-02-17 15:55:00,31.3,4.8,29.70,WNW,293,7.4,9.8,32,0.00,,,0.00,WUHU216HW,2013-02-17 20:55:00,
2013-02-17 16:00:00,31.0,4.4,29.71,West,270,3.4,11.6,32,0.00,,,0.00,WUHU216HW,2013-02-17 21:00:00,
2013-02-17 16:05:00,30.8,4.2,29.71,NNW,338,7.2,11.6,32,0.00,,,0.00,WUHU216HW,2013-02-17 21:05:00,
2013-02-17 16:10:00,30.6,4.8,29.71,SSW,203,3.6,7.6,33,0.00,,,0.00,WUHU216HW,2013-02-17 21:10:00,
2013-02-17 16:15:00,30.6,4.8,29.71,NNW,338,6.7,9.2,33,0.00,,,0.00,WUHU216HW,2013-02-17 21:15:00,
2013-02-17 16:20:00,30.4,5.2,29.71,WSW,248,2.0,10.3,34,0.00,,,0.00,WUHU216HW,2013-02-17 21:20:00,
2013-02-17 16:25:00,30.1,4.2,29.72,West,270,4.7,10.3,33,0.00,,,0.00,WUHU216HW,2013-02-17 21:25:00,
2013-02-17 16:30:00,29.9,4.7,29.72,NNW,338,6.9,8.7,34,0.00,,,0.00,WUHU216HW,2013-02-17 21:30:00,
2013-02-17 16:35:00,29.9,5.3,29.72,NNW,338,2.2,7.4,35,0.00,,,0.00,WUHU216HW,2013-02-17 21:35:00,
2013-02-17 16:40:00,29.7,5.9,29.72,West,270,4.0,8.5,36,0.00,,,0.00,WUHU216HW,2013-02-17 21:40:00,
2013-02-17 16:45:00,29.5,5.7,29.73,West,270,1.6,8.7,36,0.00,,,0.00,WUHU216HW,2013-02-17 21:45:00,
2013-02-17 16:50:00,29.5,5.1,29.73,NW,315,6.3,13.0,35,0.00,,,0.00,WUHU216HW,2013-02-17 21:50:00,
2013-02-17 16:55:00,29.2,4.7,29.73,NNW,338,4.0,13.0,35,0.00,,,0.00,WUHU216HW,2013-02-17 21:55:00,
2013-02-17 17:01:00,29.2,5.3,29.74,WSW,248,6.7,8.5,36,0.00,,,0.00,WUHU216HW,2013-02-17 22:01:00,
2013-02-17 17:06:00,29.0,5.1,29.74,SSE,158,8.7,11.0,36,0.00,,,0.00,WUHU216HW,2013-02-17 22:06:00,
2013-02-17 17:11:00,28.6,4.9,29.74,WSW,248,5.4,11.0,36,0.00,,,0.00,WUHU216HW,2013-02-17 22:11:00,
2013-02-17 17:16:00,28.4,4.7,29.74,NE,45,6.5,10.5,36,0.00,,,0.00,WUHU216HW,2013-02-17 22:16:00,
2013-02-17 17:21:00,28.4,5.3,29.74,SW,225,3.4,10.5,37,0.00,,,0.00,WUHU216HW,2013-02-17 22:21:00,
2013-02-17 17:26:00,28.3,5.1,29.75,SSW,203,3.4,9.2,37,0.00,,,0.00,WUHU216HW,2013-02-17 22:26:00,
2013-02-17 17:31:00,28.3,5.1,29.75,WNW,293,4.0,9.2,37,0.00,,,0.00,WUHU216HW,2013-02-17 22:31:00,
2013-02-17 17:36:00,28.1,5.0,29.76,NNW,338,1.8,9.4,37,0.00,,,0.00,WUHU216HW,2013-02-17 22:36:00,
2013-02-17 17:41:00,27.9,4.9,29.76,NNW,338,2.7,9.4,37,0.00,,,0.00,WUHU216HW,2013-02-17 22:41:00,
2013-02-17 17:45:00,27.9,5.5,29.77,SSW,203,2.7,8.7,38,0.00,,,0.00,WUHU216HW,2013-02-17 22:45:00,
2013-02-17 17:50:00,27.9,6.1,29.77,NW,315,4.7,6.3,39,0.00,,,0.00,WUHU216HW,2013-02-17 22:50:00,
2013-02-17 17:55:00,27.7,6.0,29.78,NW,315,1.1,6.7,39,0.00,,,0.00,WUHU216HW,2013-02-17 22:55:00,
2013-02-17 18:01:00,27.7,6.0,29.78,NNW,338,7.4,7.4,39,0.00,,,0.00,WUHU216HW,2013-02-17 23:01:00,
2013-02-17 18:06:00,27.5,5.1,29.78,West,270,8.1,9.6,38,0.00,,,0.00,WUHU216HW,2013-02-17 23:06:00,
2013-02-17 18:11:00,27.4,5.0,29.79,NE,45,3.4,9.6,38,0.00,,,0.00,WUHU216HW,2013-02-17 23:11:00,
2013-02-17 18:16:00,27.2,4.8,29.79,WNW,293,9.2,11.4,38,0.00,,,0.00,WUHU216HW,2013-02-17 23:16:00,
2013-02-17 18:21:00,27.0,4.1,29.79,NNW,338,6.0,12.5,37,0.00,,,0.00,WUHU216HW,2013-02-17 23:21:00,
2013-02-17 18:26:00,26.8,3.9,29.80,WNW,293,9.2,12.5,37,0.00,,,0.00,WUHU216HW,2013-02-17 23:26:00,
2013-02-17 18:30:00,26.6,4.3,29.80,WNW,293,3.6,9.8,38,0.00,,,0.00,WUHU216HW,2013-02-17 23:30:00,
2013-02-17 18:35:00,26.6,3.7,29.80,WSW,248,3.8,9.4,37,0.00,,,0.00,WUHU216HW,2013-02-17 23:35:00,
2013-02-17 18:41:00,26.6,3.7,29.80,WSW,248,9.2,9.4,37,0.00,,,0.00,WUHU216HW,2013-02-17 23:41:00,
2013-02-17 18:46:00,26.3,3.4,29.80,WSW,248,6.9,9.2,37,0.00,,,0.00,WUHU216HW,2013-02-17 23:46:00,
2013-02-17 18:51:00,26.3,3.4,29.81,West,270,3.4,8.5,37,0.00,,,0.00,WUHU216HW,2013-02-17 23:51:00,
2013-02-17 18:56:00,26.1,3.9,29.82,WNW,293,2.2,8.5,38,0.00,,,0.00,WUHU216HW,2013-02-17 23:56:00,
2013-02-17 19:01:00,25.9,3.7,29.82,ENE,68,10.7,10.7,38,0.00,,,0.00,WUHU216HW,2013-02-18 00:01:00,
2013-02-17 19:06:00,25.7,3.5,29.82,North,0,5.1,11.2,38,0.00,,,0.00,WUHU216HW,2013-02-18 00:06:00,
2013-02-17 19:11:00,25.6,3.3,29.83,NNE,23,11.0,11.2,38,0.00,,,0.00,WUHU216HW,2013-02-18 00:11:00,
2013-02-17 19:16:00,25.2,3.1,29.83,WNW,293,6.3,11.2,38,0.00,,,0.00,WUHU216HW,2013-02-18 00:16:00,
2013-02-17 19:21:00,25.0,3.5,29.83,NW,315,3.1,11.2,39,0.00,,,0.00,WUHU216HW,2013-02-18 00:21:00,
2013-02-17 19:26:00,24.8,3.3,29.83,WNW,293,6.7,9.2,39,0.00,,,0.00,WUHU216HW,2013-02-18 00:26:00,
2013-02-17 19:31:00,24.8,4.0,29.84,NW,315,4.7,8.5,40,0.00,,,0.00,WUHU216HW,2013-02-18 00:31:00,
2013-02-17 19:36:00,24.7,4.3,29.84,WNW,293,4.7,9.8,41,0.00,,,0.00,WUHU216HW,2013-02-18 00:36:00,
2013-02-17 19:41:00,24.7,4.8,29.84,West,270,6.9,9.8,42,0.00,,,0.00,WUHU216HW,2013-02-18 00:41:00,
2013-02-17 19:46:00,24.5,4.6,29.84,SE,135,2.9,9.2,42,0.00,,,0.00,WUHU216HW,2013-02-18 00:46:00,
2013-02-17 19:51:00,24.5,5.1,29.84,West,270,8.5,8.5,43,0.00,,,0.00,WUHU216HW,2013-02-18 00:51:00,
2013-02-17 19:56:00,24.3,5.0,29.84,ENE,68,4.3,9.8,43,0.00,,,0.00,WUHU216HW,2013-02-18 00:56:00,
2013-02-17 20:01:00,24.3,5.0,29.84,SSE,158,3.1,9.8,43,0.00,,,0.00,WUHU216HW,2013-02-18 01:01:00,
2013-02-17 20:06:00,24.1,4.8,29.85,NNE,23,2.7,6.9,43,0.00,,,0.00,WUHU216HW,2013-02-18 01:06:00,
2013-02-17 20:11:00,24.1,4.8,29.85,NNW,338,3.8,7.2,43,0.00,,,0.00,WUHU216HW,2013-02-18 01:11:00,
2013-02-17 20:16:00,23.9,4.2,29.85,North,0,4.0,9.4,42,0.00,,,0.00,WUHU216HW,2013-02-18 01:16:00,
2013-02-17 20:21:00,23.8,4.4,29.85,NNW,338,4.3,11.4,43,0.00,,,0.00,WUHU216HW,2013-02-18 01:21:00,
2013-02-17 20:26:00,23.8,4.0,29.85,NNW,338,6.5,11.4,42,0.00,,,0.00,WUHU216HW,2013-02-18 01:26:00,
2013-02-17 20:31:00,23.6,4.3,29.86,SSW,203,4.7,10.5,43,0.00,,,0.00,WUHU216HW,2013-02-18 01:31:00,
2013-02-17 20:36:00,23.4,4.2,29.86,NNW,338,3.4,8.7,43,0.00,,,0.00,WUHU216HW,2013-02-18 01:36:00,
2013-02-17 20:41:00,23.4,4.6,29.86,NW,315,6.5,7.6,44,0.00,,,0.00,WUHU216HW,2013-02-18 01:41:00,
2013-02-17 20:46:00,23.4,4.6,29.87,WNW,293,2.7,7.6,44,0.00,,,0.00,WUHU216HW,2013-02-18 01:46:00,
2013-02-17 20:51:00,23.4,4.6,29.87,NNW,338,9.2,9.2,44,0.00,,,0.00,WUHU216HW,2013-02-18 01:51:00,
2013-02-17 20:56:00,23.0,4.3,29.87,North,0,4.7,9.2,44,0.00,,,0.00,WUHU216HW,2013-02-18 01:56:00,
2013-02-17 21:01:00,23.0,3.8,29.88,NNW,338,4.5,8.5,43,0.00,,,0.00,WUHU216HW,2013-02-18 02:01:00,
2013-02-17 21:06:00,22.9,3.6,29.88,ESE,113,5.6,11.4,43,0.00,,,0.00,WUHU216HW,2013-02-18 02:06:00,
2013-02-17 21:11:00,22.7,3.4,29.88,West,270,3.4,11.4,43,0.00,,,0.00,WUHU216HW,2013-02-18 02:11:00,
2013-02-17 21:16:00,22.7,4.0,29.89,North,0,3.4,8.1,44,0.00,,,0.00,WUHU216HW,2013-02-18 02:16:00,
2013-02-17 21:21:00,22.3,3.2,29.89,WSW,248,5.6,9.2,43,0.00,,,0.00,WUHU216HW,2013-02-18 02:21:00,
2013-02-17 21:26:00,22.1,3.4,29.89,NNW,338,2.7,9.6,44,0.00,,,0.00,WUHU216HW,2013-02-18 02:26:00,
2013-02-17 21:31:00,22.0,3.2,29.90,NNW,338,3.8,9.6,44,0.00,,,0.00,WUHU216HW,2013-02-18 02:31:00,
2013-02-17 21:36:00,22.0,3.2,29.90,NW,315,5.4,7.8,44,0.00,,,0.00,WUHU216HW,2013-02-18 02:36:00,
2013-02-17 21:41:00,21.8,3.1,29.90,WNW,293,5.4,8.9,44,0.00,,,0.00,WUHU216HW,2013-02-18 02:41:00,
2013-02-17 21:46:00,21.6,3.0,29.90,NW,315,3.1,8.9,44,0.00,,,0.00,WUHU216HW,2013-02-18 02:46:00,
2013-02-17 21:51:00,21.4,2.8,29.91,WSW,248,9.6,9.6,44,0.00,,,0.00,WUHU216HW,2013-02-18 02:51:00,
2013-02-17 21:56:00,21.2,2.6,29.92,NW,315,4.7,10.5,44,0.00,,,0.00,WUHU216HW,2013-02-18 02:56:00,
2013-02-17 22:01:00,20.9,2.3,29.92,WNW,293,6.3,10.5,44,0.00,,,0.00,WUHU216HW,2013-02-18 03:01:00,
2013-02-17 22:06:00,20.7,2.1,29.92,NW,315,5.1,10.5,44,0.00,,,0.00,WUHU216HW,2013-02-18 03:06:00,
2013-02-17 22:11:00,20.5,2.0,29.92,West,270,3.8,10.3,44,0.00,,,0.00,WUHU216HW,2013-02-18 03:11:00,
2013-02-17 22:16:00,20.5,2.0,29.92,SW,225,3.8,8.1,44,0.00,,,0.00,WUHU216HW,2013-02-18 03:16:00,
2013-02-17 22:21:00,20.3,1.8,29.93,NNW,338,4.0,10.3,44,0.00,,,0.00,WUHU216HW,2013-02-18 03:21:00,
2013-02-17 22:26:00,20.2,1.6,29.93,WNW,293,6.0,10.3,44,0.00,,,0.00,WUHU216HW,2013-02-18 03:26:00,
2013-02-17 22:31:00,20.2,1.6,29.93,NW,315,6.3,13.6,44,0.00,,,0.00,WUHU216HW,2013-02-18 03:31:00,
2013-02-17 22:36:00,19.8,1.3,29.93,WNW,293,6.9,13.6,44,0.00,,,0.00,WUHU216HW,2013-02-18 03:36:00,
2013-02-17 22:41:00,19.8,1.3,29.93,NNW,338,6.0,12.1,44,0.00,,,0.00,WUHU216HW,2013-02-18 03:41:00,
2013-02-17 22:46:00,19.8,1.8,29.93,SSW,203,3.4,8.9,45,0.00,,,0.00,WUHU216HW,2013-02-18 03:46:00,
2013-02-17 22:51:00,19.8,1.8,29.93,West,270,1.1,8.3,45,0.00,,,0.00,WUHU216HW,2013-02-18 03:51:00,
2013-02-17 22:56:00,19.8,1.8,29.93,WNW,293,3.4,6.9,45,0.00,,,0.00,WUHU216HW,2013-02-18 03:56:00,
2013-02-17 23:01:00,19.8,1.8,29.93,WSW,248,4.9,12.1,45,0.00,,,0.00,WUHU216HW,2013-02-18 04:01:00,
2013-02-17 23:06:00,19.8,1.8,29.93,SW,225,2.5,12.1,45,0.00,,,0.00,WUHU216HW,2013-02-18 04:06:00,
2013-02-17 23:11:00,19.6,2.1,29.94,West,270,3.6,8.7,46,0.00,,,0.00,WUHU216HW,2013-02-18 04:11:00,
2013-02-17 23:16:00,19.6,2.1,29.93,WNW,293,4.0,9.4,46,0.00,,,0.00,WUHU216HW,2013-02-18 04:16:00,
2013-02-17 23:21:00,19.6,2.1,29.94,North,0,1.8,9.4,46,0.00,,,0.00,WUHU216HW,2013-02-18 04:21:00,
2013-02-17 23:26:00,19.6,2.1,29.93,WNW,293,2.5,12.1,46,0.00,,,0.00,WUHU216HW,2013-02-18 04:26:00,
2013-02-17 23:31:00,19.6,2.1,29.93,West,270,5.1,12.1,46,0.00,,,0.00,WUHU216HW,2013-02-18 04:31:00,
2013-02-17 23:36:00,19.6,2.1,29.93,WSW,248,7.8,10.1,46,0.00,,,0.00,WUHU216HW,2013-02-18 04:36:00,
2013-02-17 23:41:00,19.6,2.5,29.94,NNW,338,1.8,10.1,47,0.00,,,0.00,WUHU216HW,2013-02-18 04:41:00,
2013-02-17 23:46:00,19.6,2.5,29.93,West,270,5.1,7.8,47,0.00,,,0.00,WUHU216HW,2013-02-18 04:46:00,
2013-02-17 23:51:00,19.6,2.5,29.94,NNW,338,5.4,7.8,47,0.00,,,0.00,WUHU216HW,2013-02-18 04:51:00,
2013-02-17 23:56:00,19.6,2.1,29.94,North,0,5.4,10.1,46,0.00,,,0.00,WUHU216HW,2013-02-18 04:56:00,